Weather History for Hollister Municipal Airport, CA

Change the Weather History Date:

Sunday, March 9, 2014

  Actual Average (KSNS) Record (KSNS)
Temperature  
Mean Temperature 66 °F 54 °F  
Max Temperature 78 °F 64 °F 88 °F (1934)
Min Temperature 53 °F 45 °F 29 °F (1935)
Degree Days  
Heating Degree Days 0 11  
Month to date heating degree days 99  
Since 1 July heating degree days 1913  
Cooling Degree Days 0 0  
Month to date cooling degree days 0  
Year to date cooling degree days 0  
Growing Degree Days 16 (Base 50)    
Moisture  
Dew Point 49 °F    
Average Humidity 65    
Maximum Humidity 100    
Minimum Humidity 26    
Precipitation  
Precipitation 0.00 in 0.08 in 1.68 in (1939)
Month to date precipitation 0.74  
Year to date precipitation 5.83  
Since 1 July precipitation 9.94  
Sea Level Pressure  
Sea Level Pressure 30.14 in    
Wind  
Wind Speed 3 mph (WSW)    
Max Wind Speed 13 mph    
Max Gust Speed -    
Visibility 10 miles    
Events      
T = Trace of Precipitation, MM = Missing Value Source: NWS Daily Summary

Daily Weather History Graph

Daily Weather History Graph

Search for Another Location

Airport:

Trip Planner

Search our weather history database for the weather conditions in past years. The results will help you decide how hot, cold, wet, or windy it might be!

Date:

Astronomy

Mar. 09, 2014 Rise Set
Actual Time 7:25 AM PDT 7:07 PM PDT
Civil Twilight 6:59 AM PDT 7:33 PM PDT
Nautical Twilight 6:29 AM PDT 8:03 PM PDT
Astronomical Twilight 5:59 AM PDT 8:33 PM PDT
Moon 1:10 PM PDT (3/9) 3:48 AM PDT (3/9)
Length of Visible Light 12h 34m
Length of Day
11h 42m
First Quarter, 62% of the Moon is Illuminated
Mar 9
First Quarter
Mar 16
Full
Mar 23
Last Quarter
Mar 30
New
Apr 7
First Quarter

Hourly Weather History & Observations

Time (PDT) Temp. Dew Point Humidity Pressure Visibility Wind Dir Wind Speed Gust Speed Precip Events Conditions
12:10 AM 57.2 °F 51.8 °F 82% 30.20 in 10.0 mi ENE 5.8 mph - N/A   Clear
12:30 AM 57.2 °F 51.8 °F 82% 30.20 in 10.0 mi Calm Calm - N/A   Clear
12:50 AM 57.2 °F 51.8 °F 82% 30.20 in 10.0 mi Calm Calm - N/A   Clear
1:10 AM 57.2 °F 51.8 °F 82% 30.20 in 10.0 mi Calm Calm - N/A   Clear
1:30 AM 57.2 °F 51.8 °F 82% 30.19 in 10.0 mi ENE 4.6 mph - N/A   Clear
1:50 AM 57.2 °F 51.8 °F 82% 30.18 in 10.0 mi ENE 4.6 mph - N/A   Clear
3:10 AM 57.2 °F 51.8 °F 82% 30.18 in 10.0 mi Calm Calm - N/A   Clear
3:30 AM 57.2 °F 51.8 °F 82% 30.17 in 10.0 mi NE 4.6 mph - N/A   Clear
3:50 AM 55.4 °F 51.8 °F 88% 30.17 in 10.0 mi Calm Calm - N/A   Clear
4:10 AM 55.4 °F 51.8 °F 88% 30.17 in 10.0 mi Calm Calm - N/A   Clear
4:30 AM 55.4 °F 51.8 °F 88% 30.16 in 10.0 mi Calm Calm - N/A   Clear
4:50 AM 57.2 °F 51.8 °F 82% 30.16 in 10.0 mi Calm Calm - N/A   Clear
5:10 AM 55.4 °F 51.8 °F 88% 30.16 in 10.0 mi Calm Calm - N/A   Clear
5:30 AM 55.4 °F 51.8 °F 88% 30.16 in 10.0 mi Calm Calm - N/A   Clear
5:50 AM 55.4 °F 51.8 °F 88% 30.16 in 10.0 mi Calm Calm - N/A   Clear
6:10 AM 55.4 °F 51.8 °F 88% 30.15 in 10.0 mi SE 3.5 mph - N/A   Clear
6:30 AM 55.4 °F 53.6 °F 94% 30.15 in 5.0 mi Calm Calm - N/A   Clear
6:50 AM 55.4 °F 53.6 °F 94% 30.15 in 10.0 mi North 3.5 mph - N/A   Clear
7:10 AM 53.6 °F 51.8 °F 94% 30.15 in 10.0 mi NNW 4.6 mph - N/A   Clear
7:30 AM 53.6 °F 51.8 °F 94% 30.16 in 10.0 mi Calm Calm - N/A   Clear
7:50 AM 53.6 °F 51.8 °F 94% 30.16 in 10.0 mi Calm Calm - N/A   Clear
8:10 AM 53.6 °F 53.6 °F 100% 30.16 in 10.0 mi Calm Calm - N/A   Clear
8:30 AM 55.4 °F 53.6 °F 94% 30.16 in 10.0 mi SE 4.6 mph - N/A   Clear
8:50 AM 55.4 °F 53.6 °F 94% 30.17 in 10.0 mi SSE 4.6 mph - N/A   Clear
9:10 AM 59.0 °F 53.6 °F 82% 30.17 in 10.0 mi Calm Calm - N/A   Clear
9:30 AM 60.8 °F 51.8 °F 72% 30.17 in 10.0 mi Calm Calm - N/A   Clear
9:50 AM 60.8 °F 53.6 °F 77% 30.18 in 10.0 mi Calm Calm - N/A   Clear
10:10 AM 60.8 °F 53.6 °F 77% 30.18 in 10.0 mi NW 3.5 mph - N/A   Clear
10:30 AM 60.8 °F 53.6 °F 77% 30.18 in 10.0 mi Calm Calm - N/A   Clear
10:50 AM 62.6 °F 53.6 °F 72% 30.18 in 10.0 mi Calm Calm - N/A   Clear
11:10 AM 62.6 °F 53.6 °F 72% 30.17 in 10.0 mi Calm Calm - N/A   Clear
11:30 AM 62.6 °F 53.6 °F 72% 30.17 in 10.0 mi Calm Calm - N/A   Clear
11:50 AM 64.4 °F 53.6 °F 68% 30.17 in 10.0 mi Calm Calm - N/A   Clear
12:10 PM 66.2 °F 53.6 °F 64% 30.16 in 10.0 mi WNW 3.5 mph - N/A   Clear
12:30 PM 68.0 °F 53.6 °F 60% 30.16 in 10.0 mi NW 6.9 mph - N/A   Clear
12:50 PM 69.8 °F 53.6 °F 56% 30.16 in 10.0 mi NW 6.9 mph - N/A   Clear
1:10 PM 71.6 °F 51.8 °F 50% 30.15 in 10.0 mi Calm Calm - N/A   Clear
1:30 PM 73.4 °F 50.0 °F 44% 30.14 in 10.0 mi Calm Calm - N/A   Clear
1:50 PM 73.4 °F 48.2 °F 41% 30.13 in 10.0 mi Calm Calm - N/A   Clear
2:10 PM 73.4 °F 48.2 °F 41% 30.13 in 10.0 mi Calm Calm - N/A   Clear
2:30 PM 75.2 °F 48.2 °F 38% 30.12 in 10.0 mi NE 3.5 mph - N/A   Clear
2:50 PM 77.0 °F 46.4 °F 34% 30.11 in 10.0 mi SW 3.5 mph - N/A   Clear
3:10 PM 77.0 °F 44.6 °F 32% 30.10 in 10.0 mi NW 5.8 mph - N/A   Clear
3:30 PM 77.0 °F 44.6 °F 32% 30.10 in 10.0 mi NNW 5.8 mph - N/A   Clear
3:50 PM 78.8 °F 44.6 °F 30% 30.09 in 10.0 mi NNW 4.6 mph - N/A   Clear
4:10 PM 78.8 °F 44.6 °F 30% 30.09 in 10.0 mi North 3.5 mph - N/A   Clear
4:30 PM 78.8 °F 41.0 °F 26% 30.08 in 10.0 mi West 3.5 mph - N/A   Clear
4:50 PM 75.2 °F 42.8 °F 31% 30.08 in 10.0 mi WNW 9.2 mph - N/A   Clear
5:10 PM 73.4 °F 46.4 °F 38% 30.08 in 10.0 mi West 10.4 mph - N/A   Clear
5:30 PM 71.6 °F 44.6 °F 38% 30.08 in 10.0 mi WSW 12.7 mph - N/A   Clear
5:50 PM 71.6 °F 42.8 °F 35% 30.08 in 10.0 mi WSW 12.7 mph - N/A   Clear
6:10 PM 69.8 °F 42.8 °F 38% 30.08 in 10.0 mi WSW 11.5 mph - N/A   Clear
6:30 PM 69.8 °F 42.8 °F 38% 30.09 in 10.0 mi WSW 10.4 mph - N/A   Clear
6:50 PM 66.2 °F 42.8 °F 43% 30.09 in 10.0 mi SW 5.8 mph - N/A   Clear
7:10 PM 66.2 °F 42.8 °F 43% 30.10 in 10.0 mi SW 6.9 mph - N/A   Clear
7:30 PM 62.6 °F 44.6 °F 52% 30.10 in 10.0 mi WSW 4.6 mph - N/A   Clear
7:50 PM 62.6 °F 44.6 °F 52% 30.11 in 10.0 mi SW 4.6 mph - N/A   Clear
8:10 PM 60.8 °F 44.6 °F 55% 30.11 in 10.0 mi SW 4.6 mph - N/A   Clear
8:30 PM 60.8 °F 42.8 °F 52% 30.12 in 10.0 mi Calm Calm - N/A   Clear
8:50 PM 60.8 °F 42.8 °F 52% 30.12 in 10.0 mi SW 5.8 mph - N/A   Clear
9:10 PM 60.8 °F 44.6 °F 55% 30.13 in 10.0 mi West 4.6 mph - N/A   Clear
9:30 PM 60.8 °F 44.6 °F 55% 30.13 in 10.0 mi SW 8.1 mph - N/A   Clear
9:50 PM 60.8 °F 44.6 °F 55% 30.14 in 10.0 mi SW 9.2 mph - N/A   Clear
10:10 PM 60.8 °F 44.6 °F 55% 30.14 in 10.0 mi WSW 6.9 mph - N/A   Clear
10:30 PM 59.0 °F 44.6 °F 59% 30.14 in 10.0 mi Calm Calm - N/A   Clear
10:50 PM 59.0 °F 44.6 °F 59% 30.14 in 10.0 mi SW 6.9 mph - N/A   Clear
11:10 PM 57.2 °F 44.6 °F 63% 30.15 in 10.0 mi SW 5.8 mph - N/A   Clear
11:30 PM 57.2 °F 44.6 °F 63% 30.15 in 10.0 mi SSW 4.6 mph - N/A   Clear
11:50 PM 55.4 °F 44.6 °F 67% 30.14 in 10.0 mi ESE 4.6 mph - N/A   Clear
12:10 AM 55.4 °F 44.6 °F 67% 30.14 in 10.0 mi SE 5.8 mph - N/A   Clear
12:30 AM 53.6 °F 44.6 °F 72% 30.14 in 10.0 mi SSE 4.6 mph - N/A   Clear
12:50 AM 55.4 °F 44.6 °F 67% 30.14 in 10.0 mi SE 4.6 mph - N/A   Clear